Terminal Aerodrome Forecast
Issued by NWS

Home | Current Version | Previous Version | Text Only | Print | Product List | Glossary On
Versions: 1 2 3 4 5 6 7 8 9 10 11 12 13 14 15 16 17 18
000
FTUS46 KMTR 170520
TAFMRY
TAF
KMRY 170520Z 1706/1806 02005KT P6SM SKC
     FM170700 09012KT P6SM SKC
     FM171200 04008KT P6SM SKC WS020/05025KT
     FM171630 04005KT P6SM SKC
     FM172100 32007KT P6SM SKC
     FM180300 14004KT P6SM SKC=

USA.gov is the U.S. government's official web portal to all federal, state and local government web resources and services.